Regional Weather Roundup
Issued by NWS

Home | Current Version | Previous Version | Text Only | Print | Product List | Glossary Off
Versions: 1 2 3 4 5 6 7 8 9 10 11 12 13 14 15 16 17 18 19 20 21 22 23 24 25 26 27 28 29 30 31 32 33 34 35 36 37 38 39 40 41 42 43 44 45 46 47 48 49 50

000
ASUS43 KBIS 301102
RWRND

NORTH DAKOTA REGIONAL WEATHER ROUNDUP
NATIONAL WEATHER SERVICE BISMARCK ND
600 AM CDT SUN AUG 30 2015

NOTE: "FAIR" INDICATES FEW OR NO CLOUDS BELOW 12,000 FEET WITH NO
SIGNIFICANT WEATHER AND/OR OBSTRUCTIONS TO VISIBILITY.


NDZ001>003-009>011-017-301200-
NORTHWEST NORTH DAKOTA

CITY           SKY/WX    TMP DP  RH WIND       PRES   REMARKS
WILLISTON      CLOUDY    64  55  72 NW3       29.66S
MINOT          MOCLDY    70  57  63 SE6       29.68F
MINOT AFB      MOCLDY    64  61  91 NE1       29.67F
$$

NDZ018>021-031>035-040>046-301200-
SOUTHWEST NORTH DAKOTA

CITY           SKY/WX    TMP DP  RH WIND       PRES   REMARKS
BISMARCK       PTCLDY    64  61  90 E5        29.75F
DICKINSON      MOCLDY    63  50  62 S12       29.71F
GARRISON         N/A     60  56  86 SE5       29.72F
HETTINGER ARPT MOCLDY    61  49  64 SE5       29.77F
$$

NDZ004>008-012>016-024-026-027-054-301200-
NORTHEAST NORTH DAKOTA

CITY           SKY/WX    TMP DP  RH WIND       PRES   REMARKS
GRAND FORKS    PTCLDY    65  64  97 S10       29.77S
GRND FRKS AFB  CLEAR     64  64  99 S8        29.77S
DEVILS LAKE    MOCLDY    68  61  77 SE9       29.74F
$$

NDZ022-023-025-028>030-036>039-047>053-301200-
SOUTHEAST NORTH DAKOTA

CITY           SKY/WX    TMP DP  RH WIND       PRES   REMARKS
FARGO          CLEAR     65  62  90 S12       29.83S
JAMESTOWN      FOG       65  64  97 S7        29.79S VSB 3/4
$$




USA.gov is the U.S. government's official web portal to all federal, state and local government web resources and services.